Volver al catálogo

INTELSAT 3-F6

ActivoComunicacionesGEO
NORAD 4297·PAYLOAD· XX

Lanzado Jan 15, 1970 desde Cape Canaveral Space Force Station

Loading…

TLE

ActualizadoSource: Space-Track

Época: Sep 14, 2026, 16:26 UTC

1 04297U 70003A   26257.68473485 -.00000063  00000-0  00000-0 0  9999
2 04297   1.3136  87.3867 0009104 261.5604  84.5009  0.99159567177748

Sigue INTELSAT 3-F6 en tiempo real con AllMySat

Download on the App Store